格洛纳斯-784 COSMOS 2363 [GLONASS]

导读 | 星芒AI

COSMOS 2363 是一颗俄罗斯 GLONASS 卫星,属于全球导航卫星系统(GLONASS)的一部分,用于提供高精度的定位、导航和时间同步服务。该卫星由俄罗斯航天局发射,运行在中地球轨道,与 GLONASS 系统中的其他卫星协同工作,为全球用户提供导航支持。GLONASS 与 GPS 等系统兼容,广泛应用于交通、通信、军事和民用领域。COSMOS 2363 的运行增强了 GLONASS 系统的覆盖范围和可靠性。

基本信息
目录编号:
25594
目录名称:
COSMOS 2363 (GLONASS)
国际标识:
1998-077B
轨道中心:
EARTH
卫星名称:
格洛纳斯-784
卫星全名:
格洛纳斯-784 COSMOS 2363 [GLONASS]
卫星状态:
在轨 (已飞行9803 天)
发射日期:
1998-12-30 UTC
国别 :
俄罗斯(独联体) (CIS)
星等 :
--
轨道信息
数据来源 国际轨道数据 AOE轨道数据
星历时间 2025-10-30T14:12:34+0800
1天前
查看轨道信息
2025-10-28T16:00:00+0800
3天前
查看轨道信息
半长轴 25507.897km 25507.817km
偏心率 0.002681 0.0026754
轨道倾角 64.176° 64.174°
近地点辐角 45.818° 45.859°
升交点赤经 68.157° 68.225°
平近点角 312.217° 275.066°
近地点 19061.375km 19061.438km
远地点 19198.149km 19197.926km
周期 675.728分钟 675.725分钟
每日圈数 2.131036 2.131046
详细信息
平衡模式:
三轴稳定
覆盖范围:
全球
运营商:
列舍特涅夫卫星信息系统
运营商所在国:
俄罗斯
制造商(研发单位):
列舍特涅夫卫星信息系统
制造商所在国:
俄罗斯
使用方式:
暂无
卫星简介
格洛纳斯(GLONASS )是苏联/俄罗斯研制卫星导航系统。标准配置为24颗卫星,其中18颗卫星就能保证该系统为俄罗斯境内用户提供全部服务。该卫星已退役。
2D轨道图
3D轨道图
轨道高度分析图
轨道倾角分析图
轨道综合分析图
查看轨道综合分析图